Regional Weather Roundup
Issued by NWS Charleston, SC

Home | Current Version | Previous Version | Text Only | Print | Product List | Glossary On
Versions: 1 2 3 4 5 6 7 8 9 10 11 12 13 14 15 16 17 18 19 20 21 22 23 24 25 26 27 28 29 30 31 32 33 34 35 36 37 38 39 40 41 42 43 44 45 46 47 48 49 50
000
ASUS42 KCHS 250527
RWRCHS

Regional Weather Roundup
National Weather Service Charleston SC
1200 AM EST SUN FEB 25 2018

NOTE: "fair" indicates few or no clouds below 12,000 feet with no
significant weather and/or obstructions to visibility.

Not all stations are quality controlled. Use data with caution,
especially dewpoint observations.

SCZ027-030-031-034>040-042>050-250600-
...Southeast South Carolina...

CITY           SKY/WX    TMP DP  RH WIND       PRES   REMARKS
N Charleston   FAIR      66  63  90 S8        30.14F
Waterfront Prk   N/A     66  65  96 S7        30.00S
Mount Pleasant FAIR      68  66  94 S9        30.15S
Johns Island   FAIR      64  64 100 S5        30.16S
Pinopolis        N/A     64  63  94 CALM      30.05F
Moncks Corner  FAIR      63  61  94 S3        30.14S
Summerville    FAIR      64  63  94 CALM      30.15S
Beaufort MCAS  FAIR      67  66  97 S7        30.15S
Beaufort Arpt  FAIR      66  64  94 S8        30.15S
Hilton Head Is FAIR      68  64  88 S9        30.16S
Walterboro     FAIR      63  63 100 S5        30.15S
Allendale      FAIR      68  64  88 S5        30.12S

...Southern Midlands and Pee Dee...

CITY           SKY/WX    TMP DP  RH WIND       PRES   REMARKS
Georgetown     FAIR      64  64 100 S5        30.16S
Kingstree      FAIR      64  63  94 S6        30.14R
Orangeburg     FAIR      65  61  87 S10       30.12S
Barnwell         N/A     68  64  88 S8        30.12S
Aiken          FAIR      64  59  82 S5        30.13S
Manning        FAIR      64  52  63 MISG      30.13S
Columbia       FAIR      68  60  75 S9        30.09S
Sumter         FAIR      65  60  81 S10       30.10S
Florence       FAIR      66  62  87 S9        30.12S
Myrtle Beach   FAIR      66  64  93 S10       30.15F
N Myrtle Beach FAIR      65  63  93 SW12      30.14F

$$

GAZ063-065-086>088-099>101-113>116-118-119-134>141-150-250600-
...Southeast Georgia...

CITY           SKY/WX    TMP DP  RH WIND       PRES   REMARKS
Savannah Arpt  FAIR      67  65  93 S9        30.15S
Hunter AAF     FAIR      67  64  90 S7        30.13S
Fort Stewart   FAIR      65  63  92 S3        30.13S
Statesboro     FAIR      68  61  78 S7        30.13F
Sylvania       FAIR      67  65  93 S3        30.14F
Claxton        FAIR      68  64  87 CALM      30.14S

...CSRA, Central and far Southeast Georgia...

CITY           SKY/WX    TMP DP  RH WIND       PRES   REMARKS
Thomson        FAIR      67  57  70 SW5       30.15R
Augusta-Bush   FAIR      68  61  78 S10       30.09S
Augusta-Daniel FAIR      70  61  73 S12       30.10S
Swainsboro     FAIR      68  63  83 S6        30.13S
Vidalia        FAIR      68  63  83 S3        30.13S
Eastman        FAIR      67  52  57 SW6       30.13F
Hazlehurst     FAIR      68  56  64 S5        30.12S
Alma           FAIR      67  62  84 S5        30.14S
Waycross       FAIR      65  62  90 S3        30.15S
Jesup          FAIR      64  61  88 CALM      30.15F
Baxley         FAIR      64  64 100 SW5       30.14S
Brunswick      LGT RAIN  70  64  83 S8        30.17S
Saint Simons   CLOUDY    71  67  87 S8        30.16S

$$

SCZ027-028-034-036>038-045-046-048>050-GAZ119-141-250600-
...Lake and Supplemental Coastal Observations...

STATION/POSITION TIME  TEMP    WIND        PRES    WAVE   SWELL
                       AIR SEA DIR/SP/G            HT/PER HT/PER/DIR
                 (UTC) (F)     (DEG/KT/KT) (MB)    (FT/S) (FT/S/D)
Winyah Bay       0445   65     200/  4     1021.0S
Lake Murray      0430   67     180/ 13/ 17 1017.9F
ACE Basin NERRS  0445   64        CALM     1021.0S
Fort Pulaski     0500   67 64  210/  5/  7 1021.3
Sapelo Island    0500   69     200/  9     1021.0

$$

ANZ835-935-AMZ111-154-330-350-352-354-370-450-454-472-250600-
...C-MAN and Buoy Observations...

STATION/POSITION TIME  TEMP    WIND        PRES    WAVE   SWELL
                       AIR SEA DIR/SP/G            HT/PER HT/PER/DIR
                 (UTC) (F)     (DEG/KT/KT) (MB)    (FT/S) (FT/S/D)
Buoy 41004       0510   72 71  190/ 14/ 16 1021.1
Buoy 41008       0450   63 60  160/  8/ 10 1020.9F   3/ 9   3/ 80/ 9
Folly Beach CMAN 0500   65     180/  5/  6 1021.6S
Capers Nearshore 0408   62 64  180/  8/ 10 1020.8R
Fripp Nearshore  0408   61 63  180/  6/  8 1020.1R


STATION/POSITION TIME  TEMP    WIND        PRES    WAVE   SWELL
                       AIR SEA DIR/SP/G            HT/PER HT/PER/DIR
                 (UTC) (F)     (DEG/KT/KT) (MB)    (FT/S) (FT/S/D)
5E St. Marys GA  0500      63                N/A     3/ 8   2/110/11
Frying Pan Buoy  0510   72 70  200/ 16/ 19 1020.9
Buoy 41025       0510   72 73  240/ 16/ 19 1021.2
Cape Lookout NC  0500          230/  7/ 11 1021.5R
Buoy 41002       0450   72 73  180/ 10/ 10 1024.1S   5/ 9   5/120/ 9
Buoy 41010       NOT AVBL
St Augustine FL  0500   70 69  220/  6/  8 1022.1R


$$



USA.gov is the U.S. government's official web portal to all federal, state and local government web resources and services.